PST,Max TemperatureF,Mean TemperatureF,Min TemperatureF,Max Dew PointF,MeanDew PointF,Min DewpointF,Max Humidity, Mean Humidity, Min Humidity, Max Sea Level PressureIn, Mean Sea Level PressureIn, Min Sea Level PressureIn, Max VisibilityMiles, Mean VisibilityMiles, Min VisibilityMiles, Max Wind SpeedMPH, Mean Wind SpeedMPH, Max Gust SpeedMPH,PrecipitationIn, CloudCover, Events, WindDirDegrees
2013-2-1,55,42,30,38,34,29,92,78,53,30.46,30.38,30.32,10,10,10,6,2,,0.00,0,,127
2013-2-2,50,38,27,38,32,25,92,82,61,30.49,30.41,30.32,10,10,6,6,2,,0.00,0,,107
2013-2-3,51,40,28,39,32,26,100,81,59,30.31,30.25,30.17,10,6,0,25,3,29,0.00,2,Fog,284
2013-2-4,51,45,39,38,36,33,89,70,56,30.19,30.09,29.96,10,10,10,8,3,,0.00,4,,47
2013-2-5,54,45,36,40,37,32,93,77,57,30.03,29.95,29.90,10,10,10,21,5,25,0.00,5,Rain,25
2013-2-6,50,43,36,38,36,33,89,77,61,30.12,30.03,29.92,10,10,10,6,3,,0.00,4,,344
2013-2-7,50,41,32,37,32,27,89,70,48,30.12,30.01,29.91,10,10,8,13,7,,0.01,1,Rain,297
2013-2-8,48,37,26,32,29,23,92,72,46,30.23,30.19,30.14,10,10,10,20,7,24,0.00,0,,322
2013-2-9,50,40,30,35,32,25,82,68,54,30.26,30.18,30.14,10,10,10,17,10,28,0.00,0,,320
2013-2-10,52,41,30,35,32,27,89,72,53,30.34,30.28,30.23,10,10,10,17,6,,0.00,0,,323
2013-2-11,53,42,30,38,33,27,85,68,48,30.33,30.27,30.25,10,10,10,20,9,45,0.00,0,,304
2013-2-12,55,50,45,43,40,37,80,70,57,30.39,30.36,30.33,10,10,10,18,11,25,0.00,4,,299
2013-2-13,57,52,46,42,38,34,74,63,48,30.46,30.38,30.33,10,10,10,21,14,25,0.00,3,,318
2013-2-14,55,47,37,39,37,33,89,68,55,30.53,30.49,30.45,10,10,10,14,5,20,0.00,1,,321
2013-2-15,57,44,30,40,34,28,96,82,51,30.55,30.45,30.28,10,10,10,7,2,,0.00,2,,131
2013-2-16,55,42,28,42,33,27,100,79,55,30.28,30.20,30.14,10,8,0,21,3,31,0.00,2,Fog-Rain,298
2013-2-17,50,42,33,32,27,25,72,53,39,30.24,30.19,30.12,10,10,10,23,14,30,0.00,0,,297
2013-2-18,46,38,30,30,28,25,85,68,52,30.11,29.95,29.81,10,10,10,6,2,,0.00,4,,80
2013-2-19,51,37,23,31,25,20,88,72,41,29.99,29.83,29.77,10,10,10,7,3,,0.00,1,,113
2013-2-20,48,36,24,36,29,21,88,74,50,30.07,30.03,29.98,10,10,10,20,5,26,0.01,3,Rain,322
2013-2-21,46,40,33,36,34,30,89,75,60,30.13,30.10,30.08,10,10,10,18,7,24,0.00,6,,318
2013-2-22,46,42,37,41,36,29,86,75,58,30.12,29.96,29.80,10,10,10,21,8,32,0.04,7,Rain,294
2013-2-23,48,42,37,32,30,28,79,62,46,30.38,30.18,30.01,10,10,10,21,11,32,0.00,2,,299
2013-2-24,51,42,32,32,29,26,79,65,44,30.40,30.30,30.08,10,10,9,12,5,20,0.00,3,,311
2013-2-25,51,43,35,38,34,29,100,77,52,30.32,30.16,30.01,10,10,4,21,7,30,0.15,5,Rain,276
2013-2-26,50,44,37,34,31,27,76,63,44,30.39,30.32,30.26,10,10,10,14,5,,0.00,2,,298
2013-2-27,53,42,30,41,34,26,89,74,50,30.35,30.29,30.25,10,10,10,9,3,,0.00,4,,327
2013-2-28,54,48,42,48,44,41,100,88,72,30.41,30.31,30.25,10,9,2,7,1,,0.13,7,Rain,181